SCP
3 3 2 2 2 2 2 2 2 2 2 2 2 2 2 2 2 2 2 2 2 2 2 3 3 3 2 3 4 3 3 2 2 2 2 2 2 1 1 1 1 1 1
3 3 3 2 2 2 2 2 2 2 2 2 2 2 2 2 2 2 2 2 2 2 2 2 3 3 3 3 4 3 3 2 2 2 2 2 1 1 1 1 1 1 1
3 3 3 2 3 3 3 3 2 2 2 2 2 2 2 2 2 2 3 2 2 2 2 2 2 2 3 3 3 3 3 3 3 2 2 1 1 1 1 1 1 1 1
3 3 3 3 3 3 3 3 3 3 2 2 2 2 2 2 2 2 3 2 2 1 1 1 2 2 2 2 2 2 2 2 2 2 1 1 1 1 1 1 1 1 1
5 4 3 3 3 3 3 3 3 3 3 3 2 2 2 2 1 2 2 2 1 1 1 1 1 1 1 1 1 1 1 2 1 1 1 1 1 1 1 1 1 1 1
6 5 3 3 3 2 2 2 2 3 3 3 3 2 2 1 1 1 1 1 1 1 1 1 1 1 1 1 1 0 1 1 1 1 1 1 1 2 1 1 1 1 1
5 4 3 3 3 3 2 2 2 3 3 3 3 2 2 1 1 0 1 1 1 1 1 1 1 1 0 0 0 0 0 0 0 1 1 1 1 2 2 1 1 1 1
3 3 3 3 3 3 3 3 3 3 3 3 3 3 2 2 1 0 0 0 1 1 1 1 1 1 0 0 0 0 1 1 0 0 1 1 1 2 2 2 1 1 1
3 3 3 3 3 3 4 3 3 3 3 2 2 3 3 2 1 0 0 0 1 1 1 1 1 1 0 0 1 1 1 1 1 0 0 1 1 1 2 2 1 1 1
3 4 4 3 3 3 4 4 3 3 3 3 2 3 3 2 1 0 0 0 1 1 1 1 1 1 0 0 1 1 1 1 1 1 1 1 1 1 1 1 1 1 1
4 4 4 3 2 3 3 3 3 3 3 3 2 2 3 2 1 0 0 0 1 1 1 1 1 0 0 0 0 1 1 1 1 1 1 1 1 1 1 1 1 1 1
4 4 3 2 2 2 2 2 3 3 2 2 2 2 2 2 1 0 0 0 0 0 1 1 0 0 0 0 0 0 0 0 1 1 2 2 2 1 1 1 0 0 0
4 4 3 2 2 1 1 2 2 2 2 2 1 1 2 2 1 1 0 0 0 0 0 0 0 0 0 0 0 0 0 0 0 1 2 2 1 1 0 0 0 0 0
5 4 3 2 2 2 2 1 2 2 2 1 1 1 1 1 1 1 0 0 0 0 0 0 0 0 0 0 0 0 0 0 0 1 1 1 1 0 0 0 0 0 0
6 4 3 2 2 2 2 2 2 2 1 1 1 1 1 1 1 0 0 0 0 0 0 0 0 0 0 0 0 0 0 0 0 0 0 0 0 0 0 0 0 0 0
5 4 3 3 3 2 2 2 2 1 1 1 0 0 0 0 0 0 0 0 0 0 0 0 0 0 0 0 0 0 0 0 0 0 0 0 0 0 0 0 0 0 0
3 3 2 2 2 2 2 2 2 2 1 0 0 0 0 0 0 0 0 0 0 0 0 0 0 0 0 0 0 0 0 0 0 0 0 0 0 0 0 0 0 0 0
2 2 1 1 2 2 2 2 2 2 1 1 0 0 0 0 0 0 0 0 0 0 0 0 0 0 0 0 0 0 0 0 0 0 0 0 0 0 0 0 0 0 0
1 1 1 1 1 1 1 1 1 2 1 1 0 0 0 0 0 0 0 0 0 0 0 0 0 0 0 0 0 0 0 0 0 0 0 0 0 0 0 0 0 0 0
1 1 1 1 1 1 0 0 0 1 0 0 0 0 0 0 0 0 0 0 0 0 0 0 0 0 0 0 0 0 0 0 0 0 0 0 0 0 0 0 0 0 0
1 1 1 1 1 0 0 0 0 0 0 0 0 0 0 0 0 0 0 0 0 0 0 0 0 0 0 0 0 0 0 0 0 0 0 0 0 0 0 0 0 0 0
1 1 1 1 1 0 0 0 0 0 0 0 0 0 0 0 0 0 0 0 0 0 0 0 0 0 0 0 0 0 0 0 0 0 0 0 0 0 0 0 0 0 0
1 1 1 1 0 0 0 0 0 0 0 0 0 0 0 0 0 0 0 0 0 0 0 0 0 0 0 0 0 0 0 0 0 0 0 0 0 0 0 0 0 0 0
1 1 1 0 0 0 0 0 0 0 0 0 0 0 0 0 0 0 0 0 0 0 0 0 0 0 0 0 0 0 0 0 0 0 0 0 0 0 0 0 0 0 0
1 1 0 0 0 0 0 0 0 0 0 0 0 0 0 0 0 0 0 0 0 0 0 0 0 0 0 0 0 0 0 0 0 0 0 0 0 0 0 0 0 0 0
0 0 0 0 0 0 0 0 0 0 0 0 0 0 0 0 0 0 0 0 0 0 0 0 0 0 0 0 0 0 0 0 0 0 0 0 0 0 0 0 0 0 0
Wind_Speed
5 4 3 3 3 3 3 2 2 2 2 2 2 2 2 3 3 3 4 4 4 3 3 2 2 1 1 1 1 1 1 1 2 1 1 2 4 4 4 4 5 4 5
5 4 3 2 3 2 2 1 1 1 1 1 1 1 2 2 2 2 3 3 3 3 3 2 2 2 2 2 1 1 1 1 2 3 2 2 3 4 4 4 4 4 4
6 5 4 3 3 2 2 2 1 1 1 1 1 1 1 0 0 1 2 1 2 2 2 2 2 2 2 2 1 1 1 1 2 3 3 2 2 3 4 3 4 3 4
6 5 4 3 2 2 2 2 2 1 1 1 1 1 1 1 1 0 1 1 1 1 1 1 1 1 2 2 2 1 1 1 2 3 3 3 2 2 3 3 3 2 3
5 5 4 3 3 2 2 2 2 2 2 2 2 2 2 1 1 1 1 1 2 2 1 1 1 1 2 1 1 1 1 2 2 3 3 3 2 2 3 3 4 3 3
5 5 4 4 3 3 3 3 3 3 3 3 2 2 2 2 3 3 2 2 2 2 2 2 2 3 4 4 4 5 3 2 3 3 3 3 3 2 2 3 3 4 3
5 5 5 4 4 4 3 4 4 3 3 3 3 3 3 4 5 4 4 3 3 3 2 2 2 3 3 3 4 6 6 6 4 3 4 3 3 3 3 4 3 3 3
6 5 5 5 4 4 4 4 4 3 3 3 3 3 3 4 5 5 5 4 3 3 3 2 3 3 2 3 5 5 5 5 4 3 3 3 3 3 3 4 5 5 4
5 5 5 5 4 4 4 4 4 3 3 3 3 3 3 3 3 3 3 3 3 3 3 3 3 3 3 4 5 5 5 5 8 10 9 7 8 7 5 4 4 4 4
5 5 5 4 4 4 4 4 3 3 3 3 3 3 3 2 3 2 2 3 3 3 3 3 5 4 4 4 4 5 5 4 5 6 6 6 6 6 5 3 3 4 4
5 5 5 4 4 4 4 3 3 3 3 3 3 3 3 3 4 3 2 1 2 3 3 3 3 6 5 4 3 3 4 4 4 5 5 4 4 4 4 4 4 3 3
5 5 5 4 3 4 3 3 3 3 3 3 2 3 3 3 4 4 4 3 2 3 3 3 3 5 5 5 4 5 6 4 3 4 4 4 4 4 4 5 5 5 4
5 5 4 4 3 3 3 3 2 1 1 2 2 2 3 3 3 6 6 5 4 3 4 6 6 6 5 4 6 6 4 3 3 4 4 3 3 4 4 4 5 4 4
5 4 4 4 3 3 2 2 1 1 1 1 1 2 2 3 3 3 3 3 5 5 5 6 6 5 3 4 4 3 2 2 3 3 3 3 3 3 3 3 3 3 3
5 4 4 3 4 4 4 4 3 4 3 1 1 1 1 2 1 1 1 2 3 3 4 3 3 3 3 3 3 2 2 2 3 3 3 4 4 3 2 2 2 2 2
4 3 3 3 3 3 4 5 10 7 7 7 6 4 3 4 3 3 4 4 5 5 3 3 3 3 3 3 3 3 3 2 2 3 3 3 3 3 2 1 1 2 2
3 3 2 3 3 3 3 3 3 4 7 8 7 7 5 4 5 4 4 4 4 4 2 2 3 2 2 3 3 3 3 3 2 3 2 2 2 2 2 2 2 1 1
2 3 3 2 3 2 2 2 3 3 3 3 5 6 5 5 4 4 4 3 2 2 1 2 3 2 2 3 3 3 3 3 3 3 2 2 2 2 2 2 2 1 0
2 2 2 2 2 3 2 2 2 3 3 3 3 3 3 3 3 2 2 1 2 2 2 2 3 3 3 3 3 3 3 3 3 3 2 2 2 2 1 1 1 0 1
3 4 2 2 2 2 2 2 3 3 4 3 3 3 2 2 2 2 1 0 1 2 2 3 3 3 3 3 3 3 3 3 3 2 2 2 1 1 1 1 1 1 0
3 4 3 2 2 2 2 2 3 3 3 3 3 3 3 2 2 3 3 1 1 2 2 3 3 3 3 3 3 3 3 3 2 2 2 2 1 1 1 1 1 1 1
3 3 2 2 3 2 2 2 3 3 3 3 3 4 3 1 1 2 2 2 2 2 2 2 3 3 3 3 3 3 3 3 3 2 2 2 1 1 1 1 1 1 1
3 4 3 3 3 4 3 2 3 3 3 3 3 3 3 2 1 1 2 2 2 2 2 2 2 2 2 2 2 2 2 2 2 2 2 2 1 1 1 1 1 1 1
3 4 4 3 3 3 3 3 3 3 3 3 3 3 3 2 1 1 1 2 2 2 2 2 2 4 5 3 2 2 2 2 2 1 2 1 1 1 1 1 1 2 1
3 3 4 3 3 3 3 2 3 3 3 3 3 3 3 2 2 2 2 2 3 3 3 3 2 3 4 4 4 4 5 5 3 1 1 1 2 1 2 2 2 2 2
4 4 3 3 3 2 2 2 2 2 2 2 2 2 2 2 2 3 3 3 2 2 2 2 3 4 5 4 5 6 6 5 3 0 2 2 3 2 2 3 4 3 3
Wind_Direction
155 164 172 174 180 182 188 200 204 206 202 205 203 201 204 210 213 212 223 219 217 225 228 214 217 237 271 271 245 235 229 184 183 183 89 102 96 99 108 107 112 118 129
159 164 168 164 165 172 178 182 184 182 191 185 189 194 209 215 216 214 227 220 211 221 228 221 223 219 228 252 249 240 226 210 165 160 134 114 107 121 120 121 123 127 125
154 154 151 154 152 157 157 132 117 113 110 115 141 178 203 208 236 226 219 215 216 221 228 226 229 222 239 242 225 225 227 212 151 154 151 131 118 124 118 118 113 112 133
141 140 140 147 145 138 130 124 132 136 127 111 96 72 55 28 360 313 184 176 172 165 197 221 240 217 218 231 225 218 206 180 146 144 140 137 128 134 134 143 133 127 126
135 141 142 144 136 138 134 130 131 128 118 94 84 70 51 41 13 12 103 130 116 93 74 63 46 85 90 124 189 185 178 159 153 152 144 137 140 151 163 166 151 136 106
138 133 131 130 129 126 122 119 106 95 89 87 83 79 64 38 32 61 92 91 93 98 88 73 74 77 90 93 90 83 92 143 161 158 151 146 146 144 144 149 145 146 140
130 126 127 125 119 114 118 109 101 90 81 76 78 80 74 50 57 69 82 94 84 77 73 73 78 80 91 109 98 89 75 75 107 142 140 149 152 163 154 144 135 129 124
130 131 127 123 122 118 110 101 95 89 85 80 74 76 78 61 68 87 90 99 87 77 73 83 85 75 65 102 104 96 79 59 67 97 114 120 119 136 149 149 139 114 93
138 131 127 129 127 119 110 104 102 101 98 92 89 86 82 66 60 93 119 120 109 97 85 71 78 79 67 104 119 112 103 89 71 79 84 92 92 94 104 116 128 135 126
136 126 123 125 123 120 119 116 118 120 116 110 98 93 95 83 62 74 133 142 126 114 101 89 72 68 68 87 116 121 119 111 108 98 89 93 98 99 100 108 133 139 129
127 125 122 120 119 123 123 127 133 129 124 124 114 106 96 83 80 70 77 134 125 117 108 97 80 76 73 73 92 107 123 123 120 115 110 103 92 84 78 70 70 94 102
125 126 126 128 132 125 123 130 136 143 143 135 127 116 103 95 86 77 79 88 91 103 105 105 103 103 89 84 87 97 109 109 117 110 104 100 101 98 89 84 79 75 84
121 117 116 118 106 113 127 132 141 164 163 154 152 138 123 118 109 94 87 85 92 97 94 106 119 121 106 94 95 105 115 118 115 112 112 108 103 108 112 104 96 90 83
127 125 122 117 113 102 89 84 90 53 74 95 88 102 119 120 114 119 123 118 116 116 116 115 116 108 97 102 114 118 107 98 108 113 119 115 111 112 112 117 122 123 108
133 132 133 130 120 98 71 40 48 54 39 40 54 66 93 107 75 67 144 151 143 125 133 144 150 143 129 120 116 103 100 106 102 103 111 116 116 112 114 119 118 111 101
136 136 136 129 124 121 111 79 48 57 62 61 62 78 77 88 97 93 94 102 117 134 139 148 144 141 139 139 141 131 119 110 106 108 110 115 119 119 113 101 97 110 115
136 140 138 131 135 141 138 135 117 73 64 60 61 68 81 91 88 90 93 91 110 130 138 140 133 134 135 134 129 118 112 109 103 102 103 112 112 107 107 101 80 79 91
131 123 126 131 137 134 137 150 146 141 119 78 59 65 76 83 85 87 95 96 114 139 157 128 122 124 118 115 112 107 111 117 112 105 97 96 101 111 112 110 104 76 56
131 122 121 125 129 128 138 142 132 128 121 115 110 82 76 91 86 82 107 142 154 150 142 121 119 120 111 105 102 101 102 104 103 104 103 99 99 106 104 110 118 144 250
111 104 102 124 132 139 145 142 133 128 122 122 127 126 135 142 136 138 161 187 151 128 121 118 110 110 115 119 125 130 128 127 131 133 126 129 130 129 150 162 171 203 220
114 114 112 119 121 124 124 122 118 120 123 124 121 125 143 163 160 154 158 181 183 130 117 120 123 131 136 143 144 150 152 149 151 142 134 139 140 154 199 212 214 214 217
116 122 129 119 107 99 103 112 117 118 122 123 125 136 159 191 165 149 149 142 125 116 124 137 146 148 148 153 158 167 165 151 144 138 144 158 177 201 222 222 229 254 282
116 119 113 105 109 110 116 115 117 122 129 137 137 144 161 178 168 144 134 125 126 136 143 144 148 144 138 146 152 153 147 139 138 142 161 180 205 211 214 224 244 263 273
127 128 127 127 126 132 138 134 133 138 140 142 147 155 159 161 159 140 140 144 156 158 154 156 160 153 150 151 147 127 106 102 118 153 185 225 229 219 225 242 262 267 272
133 129 132 133 137 137 139 141 141 146 147 152 157 159 157 163 176 176 181 182 178 171 172 168 160 160 164 160 146 123 111 106 96 22 234 246 244 247 254 250 257 263 260
134 136 136 137 138 141 148 149 151 153 155 159 162 165 173 183 184 180 185 185 180 169 170 174 175 174 171 163 150 138 137 135 136 169 291 270 257 251 258 264 264 263 262